PRIVATE WETTERSTATION BILLIGHEIM-ALLFELD                       ZURCK
Wetterdaten: Sonntag, 06.07.2014
Datum Zeit Temp. A. Temp. A. min Temp. A. max Feuchte A. Luftdruck Regen Wind Richtung Richtung Sonnenschein ET Solar Taupunkt Windchill Windben Empfang
06.07.2014 00:00 18,8 C 18,8 C 18,9 C 78 % 1012,0 hPa 0,0 l/m 1,6 km/h (1 Bft) S-SO 157 0 min 0,025 mm 0 W/m 14,9 C 18,8 C 6,4 km/h (2 Bft) 100 %
06.07.2014 00:10 18,7 C 18,7 C 18,8 C 79 % 1012,0 hPa 0,0 l/m 0,0 km/h (0 Bft) S-SO 157 0 min 0,000 mm 0 W/m 15,0 C 18,7 C 1,6 km/h (1 Bft) 99 %
06.07.2014 00:20 18,4 C 18,4 C 18,7 C 80 % 1011,9 hPa 0,0 l/m 0,0 km/h (0 Bft) S-SO 157 0 min 0,000 mm 0 W/m 14,9 C 18,4 C 1,6 km/h (1 Bft) 100 %
06.07.2014 00:30 18,4 C 18,3 C 18,4 C 80 % 1011,9 hPa 0,0 l/m 1,6 km/h (1 Bft) SO 135 0 min 0,000 mm 0 W/m 14,9 C 18,4 C 4,8 km/h (1 Bft) 100 %
06.07.2014 00:40 18,4 C 18,4 C 18,4 C 80 % 1011,9 hPa 0,0 l/m 3,2 km/h (1 Bft) SO 135 0 min 0,000 mm 0 W/m 14,9 C 18,4 C 6,4 km/h (2 Bft) 99 %
06.07.2014 00:50 18,4 C 18,4 C 18,4 C 80 % 1012,0 hPa 0,0 l/m 0,0 km/h (0 Bft) SO 135 0 min 0,000 mm 0 W/m 14,9 C 18,4 C 6,4 km/h (2 Bft) 100 %
06.07.2014 01:00 18,4 C 18,4 C 18,5 C 80 % 1011,9 hPa 0,0 l/m 1,6 km/h (1 Bft) SO 135 0 min 0,025 mm 0 W/m 14,9 C 18,4 C 8,0 km/h (2 Bft) 100 %
06.07.2014 01:10 18,3 C 18,3 C 18,4 C 80 % 1012,0 hPa 0,0 l/m 1,6 km/h (1 Bft) S-SO 157 0 min 0,000 mm 0 W/m 14,8 C 18,3 C 4,8 km/h (1 Bft) 100 %
06.07.2014 01:20 18,3 C 18,3 C 18,3 C 80 % 1011,9 hPa 0,0 l/m 0,0 km/h (0 Bft) SO 135 0 min 0,000 mm 0 W/m 14,8 C 18,3 C 1,6 km/h (1 Bft) 99 %
06.07.2014 01:30 18,3 C 18,3 C 18,3 C 80 % 1011,8 hPa 0,0 l/m 1,6 km/h (1 Bft) SO 135 0 min 0,000 mm 0 W/m 14,8 C 18,3 C 8,0 km/h (2 Bft) 100 %
06.07.2014 01:40 18,3 C 18,3 C 18,4 C 80 % 1011,8 hPa 0,0 l/m 1,6 km/h (1 Bft) SO 135 0 min 0,000 mm 0 W/m 14,8 C 18,3 C 8,0 km/h (2 Bft) 100 %
06.07.2014 01:50 18,2 C 18,2 C 18,3 C 81 % 1011,7 hPa 0,0 l/m 3,2 km/h (1 Bft) SO 135 0 min 0,000 mm 0 W/m 14,9 C 18,2 C 8,0 km/h (2 Bft) 99 %
06.07.2014 02:00 18,2 C 18,1 C 18,2 C 81 % 1011,7 hPa 0,0 l/m 0,0 km/h (0 Bft) SO 135 0 min 0,025 mm 0 W/m 14,9 C 18,2 C 1,6 km/h (1 Bft) 99 %
06.07.2014 02:10 18,0 C 18,0 C 18,1 C 82 % 1011,7 hPa 0,0 l/m 0,0 km/h (0 Bft) SO 135 0 min 0,000 mm 0 W/m 14,9 C 18,0 C 1,6 km/h (1 Bft) 100 %
06.07.2014 02:20 17,8 C 17,8 C 18,0 C 82 % 1011,6 hPa 0,0 l/m 0,0 km/h (0 Bft) SO 135 0 min 0,000 mm 0 W/m 14,7 C 17,8 C 1,6 km/h (1 Bft) 99 %
06.07.2014 02:30 17,8 C 17,7 C 17,8 C 83 % 1011,6 hPa 0,0 l/m 0,0 km/h (0 Bft) SO 135 0 min 0,000 mm 0 W/m 14,9 C 17,8 C 1,6 km/h (1 Bft) 100 %
06.07.2014 02:40 17,8 C 17,8 C 17,8 C 82 % 1011,6 hPa 0,0 l/m 0,0 km/h (0 Bft) SO 135 0 min 0,000 mm 0 W/m 14,7 C 17,8 C 1,6 km/h (1 Bft) 98 %
06.07.2014 02:50 17,8 C 17,8 C 17,8 C 82 % 1011,7 hPa 0,0 l/m 1,6 km/h (1 Bft) SO 135 0 min 0,000 mm 0 W/m 14,7 C 17,8 C 6,4 km/h (2 Bft) 100 %
06.07.2014 03:00 17,9 C 17,8 C 17,9 C 82 % 1011,6 hPa 0,0 l/m 1,6 km/h (1 Bft) SO 135 0 min 0,025 mm 0 W/m 14,8 C 17,9 C 8,0 km/h (2 Bft) 99 %
06.07.2014 03:10 17,9 C 17,9 C 18,0 C 82 % 1011,6 hPa 0,0 l/m 0,0 km/h (0 Bft) SO 135 0 min 0,000 mm 0 W/m 14,8 C 17,9 C 1,6 km/h (1 Bft) 100 %
06.07.2014 03:20 17,7 C 17,7 C 18,0 C 82 % 1011,5 hPa 0,0 l/m 1,6 km/h (1 Bft) SO 135 0 min 0,000 mm 0 W/m 14,6 C 17,7 C 6,4 km/h (2 Bft) 100 %
06.07.2014 03:30 17,3 C 17,3 C 17,7 C 83 % 1011,4 hPa 0,0 l/m 1,6 km/h (1 Bft) SO 135 0 min 0,000 mm 0 W/m 14,4 C 17,3 C 4,8 km/h (1 Bft) 100 %
06.07.2014 03:40 17,0 C 17,0 C 17,3 C 84 % 1011,4 hPa 0,0 l/m 0,0 km/h (0 Bft) SO 135 0 min 0,000 mm 0 W/m 14,3 C 17,0 C 1,6 km/h (1 Bft) 100 %
06.07.2014 03:50 16,7 C 16,7 C 17,0 C 84 % 1011,4 hPa 0,0 l/m 0,0 km/h (0 Bft) N 0 0 min 0,000 mm 0 W/m 14,0 C 16,7 C 0,0 km/h (0 Bft) 99 %
06.07.2014 04:00 16,4 C 16,4 C 16,7 C 85 % 1011,4 hPa 0,0 l/m 0,0 km/h (0 Bft) SO 135 0 min 0,025 mm 0 W/m 13,9 C 16,4 C 1,6 km/h (1 Bft) 100 %
06.07.2014 04:10 16,2 C 16,2 C 16,4 C 85 % 1011,3 hPa 0,0 l/m 0,0 km/h (0 Bft) SO 135 0 min 0,000 mm 0 W/m 13,7 C 16,2 C 1,6 km/h (1 Bft) 100 %
06.07.2014 04:20 16,0 C 16,0 C 16,2 C 85 % 1011,2 hPa 0,0 l/m 0,0 km/h (0 Bft) SO 135 0 min 0,000 mm 0 W/m 13,5 C 16,0 C 1,6 km/h (1 Bft) 100 %
06.07.2014 04:30 15,8 C 15,8 C 16,0 C 86 % 1011,1 hPa 0,0 l/m 0,0 km/h (0 Bft) N 0 0 min 0,000 mm 0 W/m 13,5 C 15,8 C 0,0 km/h (0 Bft) 100 %
06.07.2014 04:40 15,5 C 15,5 C 15,8 C 86 % 1011,0 hPa 0,0 l/m 0,0 km/h (0 Bft) N 0 0 min 0,000 mm 0 W/m 13,2 C 15,5 C 0,0 km/h (0 Bft) 100 %
06.07.2014 04:50 15,3 C 15,3 C 15,5 C 86 % 1011,0 hPa 0,0 l/m 0,0 km/h (0 Bft) N 0 0 min 0,000 mm 0 W/m 13,0 C 15,3 C 0,0 km/h (0 Bft) 100 %
06.07.2014 05:00 15,1 C 15,1 C 15,3 C 86 % 1011,2 hPa 0,0 l/m 0,0 km/h (0 Bft) SO 135 0 min 0,000 mm 0 W/m 12,8 C 15,1 C 3,2 km/h (1 Bft) 99 %
06.07.2014 05:10 15,1 C 15,1 C 15,1 C 86 % 1011,1 hPa 0,0 l/m 0,0 km/h (0 Bft) SO 135 0 min 0,000 mm 0 W/m 12,8 C 15,1 C 4,8 km/h (1 Bft) 100 %
06.07.2014 05:20 15,1 C 15,1 C 15,1 C 86 % 1011,1 hPa 0,0 l/m 0,0 km/h (0 Bft) SO 135 0 min 0,000 mm 0 W/m 12,8 C 15,1 C 1,6 km/h (1 Bft) 100 %
06.07.2014 05:30 15,1 C 15,1 C 15,1 C 86 % 1011,0 hPa 0,0 l/m 0,0 km/h (0 Bft) SO 135 0 min 0,000 mm 0 W/m 12,8 C 15,1 C 3,2 km/h (1 Bft) 100 %
06.07.2014 05:40 14,8 C 14,8 C 15,1 C 86 % 1011,2 hPa 0,0 l/m 1,6 km/h (1 Bft) SO 135 0 min 0,000 mm 5 W/m 12,5 C 14,8 C 3,2 km/h (1 Bft) 99 %
06.07.2014 05:50 14,7 C 14,7 C 14,8 C 86 % 1011,2 hPa 0,0 l/m 0,0 km/h (0 Bft) SO 135 0 min 0,000 mm 7 W/m 12,4 C 14,7 C 1,6 km/h (1 Bft) 99 %
06.07.2014 06:00 14,6 C 14,6 C 14,7 C 86 % 1011,2 hPa 0,0 l/m 0,0 km/h (0 Bft) SO 135 0 min 0,000 mm 12 W/m 12,3 C 14,6 C 1,6 km/h (1 Bft) 100 %
06.07.2014 06:10 14,5 C 14,5 C 14,6 C 87 % 1011,3 hPa 0,0 l/m 1,6 km/h (1 Bft) SO 135 0 min 0,000 mm 16 W/m 12,4 C 14,5 C 3,2 km/h (1 Bft) 100 %
06.07.2014 06:20 14,4 C 14,4 C 14,5 C 87 % 1011,4 hPa 0,0 l/m 1,6 km/h (1 Bft) SO 135 0 min 0,000 mm 19 W/m 12,3 C 14,4 C 3,2 km/h (1 Bft) 100 %
06.07.2014 06:30 14,4 C 14,4 C 14,4 C 87 % 1011,2 hPa 0,0 l/m 0,0 km/h (0 Bft) SO 135 0 min 0,000 mm 21 W/m 12,3 C 14,4 C 3,2 km/h (1 Bft) 98 %
06.07.2014 06:40 14,4 C 14,4 C 14,4 C 87 % 1011,3 hPa 0,0 l/m 0,0 km/h (0 Bft) N 0 0 min 0,000 mm 25 W/m 12,3 C 14,4 C 0,0 km/h (0 Bft) 100 %
06.07.2014 06:50 14,4 C 14,4 C 14,4 C 87 % 1011,2 hPa 0,0 l/m 0,0 km/h (0 Bft) SO 135 0 min 0,000 mm 26 W/m 12,3 C 14,4 C 1,6 km/h (1 Bft) 99 %
06.07.2014 07:00 14,6 C 14,4 C 14,6 C 87 % 1011,2 hPa 0,0 l/m 0,0 km/h (0 Bft) SO 135 0 min 0,025 mm 32 W/m 12,5 C 14,6 C 3,2 km/h (1 Bft) 100 %
06.07.2014 07:10 14,7 C 14,6 C 14,7 C 87 % 1011,2 hPa 0,0 l/m 0,0 km/h (0 Bft) N 0 0 min 0,000 mm 37 W/m 12,6 C 14,7 C 0,0 km/h (0 Bft) 99 %
06.07.2014 07:20 14,9 C 14,7 C 14,9 C 87 % 1011,3 hPa 0,0 l/m 0,0 km/h (0 Bft) SO 135 0 min 0,000 mm 44 W/m 12,8 C 14,9 C 1,6 km/h (1 Bft) 100 %
06.07.2014 07:30 15,1 C 14,9 C 15,1 C 87 % 1011,1 hPa 0,0 l/m 0,0 km/h (0 Bft) SO 135 0 min 0,000 mm 47 W/m 13,0 C 15,1 C 1,6 km/h (1 Bft) 100 %
06.07.2014 07:40 15,5 C 15,1 C 15,5 C 87 % 1011,2 hPa 0,0 l/m 0,0 km/h (0 Bft) SO 135 0 min 0,000 mm 46 W/m 13,3 C 15,5 C 1,6 km/h (1 Bft) 100 %
06.07.2014 07:50 15,8 C 15,5 C 15,8 C 87 % 1011,1 hPa 0,0 l/m 0,0 km/h (0 Bft) SO 135 0 min 0,000 mm 46 W/m 13,6 C 15,8 C 1,6 km/h (1 Bft) 99 %
06.07.2014 08:00 16,1 C 15,8 C 16,1 C 87 % 1011,2 hPa 0,0 l/m 0,0 km/h (0 Bft) N 0 0 min 0,025 mm 53 W/m 13,9 C 16,1 C 0,0 km/h (0 Bft) 100 %
06.07.2014 08:10 16,6 C 16,1 C 16,6 C 87 % 1011,3 hPa 0,0 l/m 0,0 km/h (0 Bft) SO 135 0 min 0,000 mm 67 W/m 14,4 C 16,6 C 1,6 km/h (1 Bft) 100 %
06.07.2014 08:20 17,8 C 16,7 C 17,8 C 87 % 1011,2 hPa 0,0 l/m 0,0 km/h (0 Bft) S 180 10 min 0,000 mm 330 W/m 15,6 C 17,8 C 6,4 km/h (2 Bft) 100 %
06.07.2014 08:30 19,2 C 17,8 C 19,2 C 83 % 1011,0 hPa 0,0 l/m 3,2 km/h (1 Bft) SO 135 10 min 0,000 mm 388 W/m 16,2 C 19,2 C 11,3 km/h (2 Bft) 100 %
06.07.2014 08:40 20,3 C 19,2 C 20,3 C 79 % 1010,9 hPa 0,0 l/m 1,6 km/h (1 Bft) S-SO 157 10 min 0,000 mm 396 W/m 16,5 C 20,3 C 11,3 km/h (2 Bft) 100 %
06.07.2014 08:50 21,1 C 20,3 C 21,1 C 77 % 1011,0 hPa 0,0 l/m 1,6 km/h (1 Bft) S-SO 157 10 min 0,000 mm 420 W/m 16,9 C 21,1 C 9,7 km/h (2 Bft) 99 %
06.07.2014 09:00 21,8 C 21,2 C 21,8 C 73 % 1011,0 hPa 0,0 l/m 1,6 km/h (1 Bft) O-SO 112 10 min 0,178 mm 445 W/m 16,7 C 21,8 C 9,7 km/h (2 Bft) 100 %
06.07.2014 09:10 22,2 C 21,8 C 22,2 C 71 % 1010,8 hPa 0,0 l/m 3,2 km/h (1 Bft) SO 135 10 min 0,000 mm 485 W/m 16,7 C 22,2 C 11,3 km/h (2 Bft) 100 %
06.07.2014 09:20 22,6 C 22,2 C 22,6 C 70 % 1010,9 hPa 0,0 l/m 1,6 km/h (1 Bft) SO 135 10 min 0,000 mm 517 W/m 16,8 C 22,6 C 9,7 km/h (2 Bft) 100 %
06.07.2014 09:30 23,2 C 22,6 C 23,2 C 68 % 1011,0 hPa 0,0 l/m 3,2 km/h (1 Bft) S-SW 202 10 min 0,000 mm 635 W/m 17,0 C 23,2 C 12,9 km/h (3 Bft) 100 %
06.07.2014 09:40 23,3 C 23,2 C 23,3 C 71 % 1010,8 hPa 0,0 l/m 3,2 km/h (1 Bft) S-SO 157 10 min 0,000 mm 680 W/m 17,7 C 23,3 C 16,1 km/h (3 Bft) 100 %
06.07.2014 09:50 23,8 C 23,3 C 23,8 C 69 % 1010,7 hPa 0,0 l/m 3,2 km/h (1 Bft) S-SW 202 10 min 0,000 mm 592 W/m 17,8 C 23,8 C 11,3 km/h (2 Bft) 100 %
06.07.2014 10:00 24,2 C 23,8 C 24,2 C 66 % 1010,5 hPa 0,0 l/m 3,2 km/h (1 Bft) S 180 10 min 0,330 mm 603 W/m 17,4 C 24,2 C 11,3 km/h (2 Bft) 100 %
06.07.2014 10:10 24,5 C 24,1 C 24,5 C 66 % 1010,5 hPa 0,0 l/m 1,6 km/h (1 Bft) O 90 10 min 0,000 mm 622 W/m 17,7 C 24,5 C 11,3 km/h (2 Bft) 100 %
06.07.2014 10:20 24,9 C 24,5 C 24,9 C 63 % 1010,5 hPa 0,0 l/m 6,4 km/h (2 Bft) S-SO 157 10 min 0,000 mm 664 W/m 17,4 C 24,9 C 19,3 km/h (3 Bft) 100 %
06.07.2014 10:30 24,8 C 24,8 C 24,9 C 64 % 1010,4 hPa 0,0 l/m 4,8 km/h (1 Bft) S-SO 157 10 min 0,000 mm 652 W/m 17,5 C 24,8 C 17,7 km/h (3 Bft) 100 %
06.07.2014 10:40 25,3 C 24,8 C 25,3 C 62 % 1010,3 hPa 0,0 l/m 6,4 km/h (2 Bft) SO 135 10 min 0,000 mm 693 W/m 17,5 C 25,3 C 17,7 km/h (3 Bft) 99 %
06.07.2014 10:50 25,7 C 25,3 C 25,8 C 59 % 1010,2 hPa 0,0 l/m 4,8 km/h (1 Bft) S-SO 157 10 min 0,000 mm 738 W/m 17,1 C 25,7 C 20,9 km/h (4 Bft) 100 %
06.07.2014 11:00 25,8 C 25,7 C 25,9 C 59 % 1010,2 hPa 0,0 l/m 8,0 km/h (2 Bft) SO 135 10 min 0,432 mm 775 W/m 17,2 C 25,4 C 19,3 km/h (3 Bft) 100 %
06.07.2014 11:10 26,0 C 25,8 C 26,0 C 55 % 1010,1 hPa 0,0 l/m 8,0 km/h (2 Bft) SO 135 10 min 0,000 mm 817 W/m 16,2 C 25,7 C 29,0 km/h (5 Bft) 100 %
06.07.2014 11:20 26,2 C 26,0 C 26,2 C 55 % 1010,1 hPa 0,0 l/m 6,4 km/h (2 Bft) SO 135 10 min 0,000 mm 942 W/m 16,4 C 26,2 C 20,9 km/h (4 Bft) 100 %
06.07.2014 11:30 26,1 C 26,0 C 26,1 C 59 % 1010,1 hPa 0,0 l/m 3,2 km/h (1 Bft) S-SW 202 10 min 0,000 mm 902 W/m 17,4 C 26,1 C 11,3 km/h (2 Bft) 100 %
06.07.2014 11:40 26,1 C 26,0 C 26,1 C 56 % 1010,0 hPa 0,0 l/m 4,8 km/h (1 Bft) S-SO 157 10 min 0,000 mm 979 W/m 16,6 C 26,1 C 16,1 km/h (3 Bft) 100 %
06.07.2014 11:50 26,0 C 25,9 C 26,1 C 58 % 1010,0 hPa 0,0 l/m 4,8 km/h (1 Bft) S-SW 202 10 min 0,000 mm 979 W/m 17,1 C 26,0 C 16,1 km/h (3 Bft) 100 %
06.07.2014 12:00 26,3 C 26,0 C 26,3 C 59 % 1010,0 hPa 0,0 l/m 4,8 km/h (1 Bft) S 180 10 min 0,406 mm 925 W/m 17,6 C 26,3 C 17,7 km/h (3 Bft) 100 %
06.07.2014 12:10 26,7 C 26,0 C 26,7 C 56 % 1010,0 hPa 0,0 l/m 5,1 km/h (1 Bft) S-SO 147 10 min 0,000 mm 269 W/m 17,2 C 26,7 C 19,3 km/h (3 Bft) 97 %
06.07.2014 12:20 26,6 C 26,6 C 26,7 C 54 % 1009,8 hPa 0,0 l/m 5,6 km/h (1 Bft) SO 141 10 min 0,000 mm 250 W/m 16,5 C 26,6 C 16,1 km/h (3 Bft) 97 %
06.07.2014 12:30 26,7 C 26,5 C 26,7 C 54 % 1009,6 hPa 0,0 l/m 3,4 km/h (1 Bft) O-SO 123 10 min 0,000 mm 387 W/m 16,6 C 26,7 C 14,5 km/h (3 Bft) 98 %
06.07.2014 12:40 27,2 C 26,7 C 27,2 C 55 % 1009,6 hPa 0,0 l/m 5,7 km/h (1 Bft) S-SW 199 10 min 0,000 mm 902 W/m 17,4 C 27,2 C 17,7 km/h (3 Bft) 97 %
06.07.2014 12:50 28,2 C 27,2 C 28,2 C 53 % 1009,5 hPa 0,0 l/m 4,6 km/h (1 Bft) S-SO 155 10 min 0,000 mm 979 W/m 17,7 C 28,2 C 16,1 km/h (3 Bft) 97 %
06.07.2014 13:00 28,3 C 28,2 C 28,6 C 52 % 1009,6 hPa 0,0 l/m 11,0 km/h (2 Bft) S 172 10 min 0,486 mm 677 W/m 17,5 C 27,7 C 25,7 km/h (4 Bft) 98 %
06.07.2014 13:10 28,2 C 28,0 C 28,3 C 50 % 1009,4 hPa 0,0 l/m 8,3 km/h (2 Bft) S-SW 202 10 min 0,000 mm 937 W/m 16,8 C 27,9 C 20,9 km/h (4 Bft) 98 %
06.07.2014 13:20 28,7 C 28,2 C 28,7 C 50 % 1009,1 hPa 0,0 l/m 8,3 km/h (2 Bft) S 190 10 min 0,000 mm 918 W/m 17,2 C 28,4 C 25,7 km/h (4 Bft) 97 %
06.07.2014 13:30 28,8 C 28,7 C 28,8 C 48 % 1009,0 hPa 0,0 l/m 6,2 km/h (2 Bft) S-SO 150 10 min 0,000 mm 248 W/m 16,7 C 28,8 C 19,3 km/h (3 Bft) 98 %
06.07.2014 13:40 28,4 C 28,4 C 28,8 C 51 % 1009,0 hPa 0,0 l/m 10,5 km/h (2 Bft) S 180 10 min 0,000 mm 784 W/m 17,3 C 27,9 C 24,1 km/h (4 Bft) 98 %
06.07.2014 13:50 28,2 C 28,2 C 28,5 C 49 % 1009,0 hPa 0,0 l/m 9,8 km/h (2 Bft) SO 143 10 min 0,000 mm 329 W/m 16,5 C 27,7 C 29,0 km/h (5 Bft) 98 %
06.07.2014 14:00 28,0 C 27,9 C 28,2 C 50 % 1008,9 hPa 0,0 l/m 8,7 km/h (2 Bft) S 174 10 min 0,533 mm 294 W/m 16,6 C 27,6 C 20,9 km/h (4 Bft) 98 %
06.07.2014 14:10 28,5 C 28,0 C 28,5 C 50 % 1008,8 hPa 0,0 l/m 11,7 km/h (2 Bft) SO 146 10 min 0,000 mm 882 W/m 17,0 C 27,8 C 29,0 km/h (5 Bft) 97 %
06.07.2014 14:20 28,4 C 28,3 C 28,5 C 49 % 1008,7 hPa 0,0 l/m 8,9 km/h (2 Bft) S-SO 154 10 min 0,000 mm 817 W/m 16,6 C 28,1 C 22,5 km/h (4 Bft) 98 %
06.07.2014 14:30 28,8 C 28,4 C 28,8 C 48 % 1008,6 hPa 0,0 l/m 10,1 km/h (2 Bft) SO 142 10 min 0,000 mm 930 W/m 16,7 C 28,4 C 24,1 km/h (4 Bft) 97 %
06.07.2014 14:40 29,1 C 28,8 C 29,1 C 48 % 1008,3 hPa 0,0 l/m 4,0 km/h (1 Bft) SO 133 10 min 0,000 mm 990 W/m 16,9 C 29,1 C 16,1 km/h (3 Bft) 97 %
06.07.2014 14:50 29,3 C 29,1 C 29,3 C 45 % 1008,4 hPa 0,0 l/m 7,3 km/h (2 Bft) S-SO 153 10 min 0,000 mm 867 W/m 16,1 C 29,2 C 20,9 km/h (4 Bft) 98 %
06.07.2014 15:00 29,6 C 29,3 C 29,6 C 47 % 1008,2 hPa 0,0 l/m 7,1 km/h (2 Bft) S 180 10 min 0,533 mm 176 W/m 17,1 C 29,5 C 22,5 km/h (4 Bft) 97 %
06.07.2014 15:10 29,1 C 29,1 C 29,6 C 46 % 1008,1 hPa 0,0 l/m 4,5 km/h (1 Bft) W-NW 290 10 min 0,000 mm 264 W/m 16,3 C 29,1 C 16,1 km/h (3 Bft) 97 %
06.07.2014 15:20 28,6 C 28,6 C 29,1 C 46 % 1008,0 hPa 0,0 l/m 7,6 km/h (2 Bft) S-SO 157 10 min 0,000 mm 195 W/m 15,8 C 28,4 C 22,5 km/h (4 Bft) 97 %
06.07.2014 15:30 28,3 C 28,3 C 28,6 C 47 % 1008,1 hPa 0,0 l/m 4,6 km/h (1 Bft) S-SO 167 0 min 0,000 mm 142 W/m 15,9 C 28,3 C 20,9 km/h (4 Bft) 97 %
06.07.2014 15:40 28,1 C 28,1 C 28,3 C 49 % 1008,2 hPa 0,0 l/m 2,6 km/h (1 Bft) W-SW 251 10 min 0,000 mm 158 W/m 16,4 C 28,1 C 14,5 km/h (3 Bft) 98 %
06.07.2014 15:50 28,2 C 28,1 C 28,2 C 50 % 1008,2 hPa 0,0 l/m 7,9 km/h (2 Bft) W-NW 290 10 min 0,000 mm 309 W/m 16,8 C 28,0 C 19,3 km/h (3 Bft) 97 %
06.07.2014 16:00 28,4 C 28,2 C 28,4 C 54 % 1008,0 hPa 0,0 l/m 3,2 km/h (1 Bft) NW 322 10 min 0,229 mm 327 W/m 18,2 C 28,4 C 16,1 km/h (3 Bft) 97 %
06.07.2014 16:10 28,7 C 28,4 C 28,7 C 49 % 1008,0 hPa 0,0 l/m 0,9 km/h (0 Bft) W-NW 301 10 min 0,000 mm 341 W/m 16,9 C 28,7 C 6,4 km/h (2 Bft) 97 %
06.07.2014 16:20 28,7 C 28,7 C 28,7 C 49 % 1008,0 hPa 0,0 l/m 0,6 km/h (0 Bft) W 268 10 min 0,000 mm 230 W/m 16,9 C 28,7 C 6,4 km/h (2 Bft) 98 %
06.07.2014 16:30 28,7 C 28,7 C 28,7 C 54 % 1007,9 hPa 0,0 l/m 0,4 km/h (0 Bft) W-NW 292 10 min 0,000 mm 315 W/m 18,5 C 28,7 C 6,4 km/h (2 Bft) 98 %
06.07.2014 16:40 29,0 C 28,7 C 29,0 C 47 % 1007,9 hPa 0,0 l/m 0,9 km/h (0 Bft) W 279 10 min 0,000 mm 278 W/m 16,5 C 29,0 C 6,4 km/h (2 Bft) 99 %
06.07.2014 16:50 29,1 C 29,0 C 29,1 C 49 % 1007,8 hPa 0,0 l/m 2,5 km/h (1 Bft) W-SW 252 10 min 0,000 mm 251 W/m 17,3 C 29,1 C 11,3 km/h (2 Bft) 100 %
06.07.2014 17:00 29,2 C 29,1 C 29,2 C 50 % 1007,6 hPa 0,0 l/m 0,3 km/h (0 Bft) W-SW 253 10 min 0,229 mm 188 W/m 17,7 C 29,2 C 6,4 km/h (2 Bft) 98 %
06.07.2014 17:10 29,0 C 29,0 C 29,2 C 48 % 1007,5 hPa 0,0 l/m 0,4 km/h (0 Bft) W-SW 253 10 min 0,000 mm 304 W/m 16,9 C 29,0 C 6,4 km/h (2 Bft) 98 %
06.07.2014 17:20 29,1 C 29,0 C 29,1 C 49 % 1007,3 hPa 0,0 l/m 0,6 km/h (0 Bft) W-SW 245 10 min 0,000 mm 255 W/m 17,3 C 29,1 C 6,4 km/h (2 Bft) 99 %
06.07.2014 17:30 29,1 C 29,1 C 29,1 C 52 % 1007,2 hPa 0,0 l/m 1,9 km/h (1 Bft) S-SW 213 10 min 0,000 mm 513 W/m 18,2 C 29,1 C 9,7 km/h (2 Bft) 99 %
06.07.2014 17:40 29,4 C 29,1 C 29,4 C 50 % 1007,1 hPa 0,0 l/m 1,3 km/h (1 Bft) W-SW 246 10 min 0,000 mm 281 W/m 17,9 C 29,4 C 8,0 km/h (2 Bft) 100 %
06.07.2014 17:50 29,3 C 29,3 C 29,5 C 50 % 1007,0 hPa 0,0 l/m 2,0 km/h (1 Bft) SW 215 10 min 0,000 mm 230 W/m 17,8 C 29,3 C 8,0 km/h (2 Bft) 99 %
06.07.2014 18:00 29,3 C 29,3 C 29,3 C 47 % 1007,0 hPa 0,0 l/m 4,1 km/h (1 Bft) SW 229 10 min 0,228 mm 320 W/m 16,8 C 29,3 C 9,7 km/h (2 Bft) 100 %
06.07.2014 18:10 29,2 C 29,2 C 29,3 C 49 % 1006,8 hPa 0,0 l/m 2,0 km/h (1 Bft) S-SO 167 10 min 0,000 mm 221 W/m 17,4 C 29,2 C 9,7 km/h (2 Bft) 98 %
06.07.2014 18:20 29,0 C 29,0 C 29,2 C 49 % 1006,6 hPa 0,0 l/m 1,1 km/h (1 Bft) S-SO 148 0 min 0,000 mm 127 W/m 17,2 C 29,0 C 8,0 km/h (2 Bft) 100 %
06.07.2014 18:30 28,7 C 28,7 C 29,0 C 50 % 1006,6 hPa 0,0 l/m 0,8 km/h (0 Bft) S-SO 147 0 min 0,000 mm 146 W/m 17,2 C 28,7 C 8,0 km/h (2 Bft) 99 %
06.07.2014 18:40 28,4 C 28,4 C 28,7 C 49 % 1006,5 hPa 0,0 l/m 0,1 km/h (0 Bft) S 172 10 min 0,000 mm 279 W/m 16,6 C 28,4 C 1,6 km/h (1 Bft) 100 %
06.07.2014 18:50 28,7 C 28,4 C 28,7 C 47 % 1006,4 hPa 0,0 l/m 0,7 km/h (0 Bft) S 169 10 min 0,000 mm 251 W/m 16,3 C 28,7 C 6,4 km/h (2 Bft) 100 %
06.07.2014 19:00 28,8 C 28,7 C 28,8 C 47 % 1006,4 hPa 0,0 l/m 2,3 km/h (1 Bft) S-SO 161 10 min 0,178 mm 232 W/m 16,3 C 28,8 C 8,0 km/h (2 Bft) 100 %
06.07.2014 19:10 28,8 C 28,8 C 28,8 C 46 % 1006,4 hPa 0,0 l/m 2,0 km/h (1 Bft) S-SO 147 10 min 0,000 mm 318 W/m 16,0 C 28,8 C 8,0 km/h (2 Bft) 100 %
06.07.2014 19:20 28,8 C 28,8 C 28,8 C 46 % 1006,3 hPa 0,0 l/m 3,0 km/h (1 Bft) SO 144 10 min 0,000 mm 234 W/m 16,0 C 28,8 C 8,0 km/h (2 Bft) 100 %
06.07.2014 19:30 28,9 C 28,8 C 28,9 C 45 % 1006,2 hPa 0,0 l/m 1,3 km/h (1 Bft) SO 128 10 min 0,000 mm 202 W/m 15,8 C 28,9 C 6,4 km/h (2 Bft) 100 %
06.07.2014 19:40 28,8 C 28,8 C 28,9 C 45 % 1006,2 hPa 0,0 l/m 0,6 km/h (0 Bft) SO 128 10 min 0,000 mm 176 W/m 15,7 C 28,8 C 4,8 km/h (1 Bft) 100 %
06.07.2014 19:50 28,7 C 28,7 C 28,8 C 46 % 1006,3 hPa 0,0 l/m 0,5 km/h (0 Bft) SO 128 0 min 0,000 mm 39 W/m 15,9 C 28,7 C 4,8 km/h (1 Bft) 100 %
06.07.2014 20:00 28,6 C 28,6 C 28,7 C 47 % 1006,1 hPa 0,0 l/m 0,4 km/h (0 Bft) SO 128 0 min 0,127 mm 35 W/m 16,2 C 28,6 C 6,4 km/h (2 Bft) 100 %
06.07.2014 20:10 28,3 C 28,3 C 28,6 C 49 % 1006,1 hPa 0,0 l/m 0,8 km/h (0 Bft) SO 126 0 min 0,000 mm 32 W/m 16,5 C 28,3 C 4,8 km/h (1 Bft) 100 %
06.07.2014 20:20 28,1 C 28,1 C 28,3 C 48 % 1006,0 hPa 0,0 l/m 0,3 km/h (0 Bft) O-SO 107 0 min 0,000 mm 28 W/m 16,0 C 28,1 C 4,8 km/h (1 Bft) 98 %
06.07.2014 20:30 27,8 C 27,8 C 28,1 C 48 % 1006,0 hPa 0,0 l/m 0,2 km/h (0 Bft) O-SO 119 0 min 0,000 mm 25 W/m 15,8 C 27,8 C 4,8 km/h (1 Bft) 100 %
06.07.2014 20:40 27,5 C 27,5 C 27,8 C 50 % 1006,1 hPa 0,0 l/m 0,0 km/h (0 Bft) O-SO 119 0 min 0,000 mm 19 W/m 16,1 C 27,5 C 1,6 km/h (1 Bft) 100 %
06.07.2014 20:50 27,1 C 27,1 C 27,5 C 49 % 1006,1 hPa 0,0 l/m 0,3 km/h (0 Bft) O 79 0 min 0,000 mm 9 W/m 15,4 C 27,1 C 4,8 km/h (1 Bft) 100 %
06.07.2014 21:00 26,6 C 26,6 C 27,1 C 50 % 1006,2 hPa 0,0 l/m 0,1 km/h (0 Bft) O 80 0 min 0,025 mm 5 W/m 15,3 C 26,6 C 3,2 km/h (1 Bft) 100 %
06.07.2014 21:10 26,3 C 26,3 C 26,6 C 54 % 1006,4 hPa 0,0 l/m 0,0 km/h (0 Bft) O 90 0 min 0,000 mm 5 W/m 16,2 C 26,3 C 1,6 km/h (1 Bft) 98 %
06.07.2014 21:20 25,7 C 25,7 C 26,2 C 54 % 1006,6 hPa 0,0 l/m 0,0 km/h (0 Bft) N 0 0 min 0,000 mm 0 W/m 15,7 C 25,7 C 0,0 km/h (0 Bft) 98 %
06.07.2014 21:30 25,1 C 25,1 C 25,7 C 56 % 1006,8 hPa 0,0 l/m 0,0 km/h (0 Bft) O 90 0 min 0,000 mm 0 W/m 15,7 C 25,1 C 1,6 km/h (1 Bft) 97 %
06.07.2014 21:40 24,8 C 24,8 C 25,1 C 60 % 1006,8 hPa 0,0 l/m 0,0 km/h (0 Bft) O 90 0 min 0,000 mm 0 W/m 16,5 C 24,8 C 1,6 km/h (1 Bft) 98 %
06.07.2014 21:50 24,4 C 24,4 C 24,8 C 61 % 1006,9 hPa 0,0 l/m 0,0 km/h (0 Bft) O 90 0 min 0,000 mm 0 W/m 16,4 C 24,4 C 1,6 km/h (1 Bft) 98 %
06.07.2014 22:00 24,2 C 24,2 C 24,8 C 62 % 1007,6 hPa 0,0 l/m 0,7 km/h (0 Bft) W-SW 253 0 min 0,000 mm 0 W/m 16,4 C 24,2 C 9,7 km/h (2 Bft) 100 %
06.07.2014 22:10 23,4 C 23,4 C 24,2 C 55 % 1010,0 hPa 0,0 l/m 29,3 km/h (5 Bft) W-SW 256 0 min 0,000 mm 0 W/m 13,8 C 19,6 C 59,5 km/h (7 Bft) 100 %
06.07.2014 22:20 22,7 C 22,7 C 23,4 C 59 % 1010,8 hPa 0,0 l/m 28,0 km/h (4 Bft) W 281 0 min 0,000 mm 0 W/m 14,3 C 18,7 C 51,5 km/h (7 Bft) 100 %
06.07.2014 22:30 21,3 C 21,3 C 22,7 C 64 % 1011,1 hPa 0,0 l/m 26,6 km/h (4 Bft) W-SW 252 0 min 0,000 mm 0 W/m 14,2 C 16,9 C 45,1 km/h (6 Bft) 100 %
06.07.2014 22:40 20,7 C 20,7 C 21,3 C 67 % 1011,1 hPa 0,0 l/m 28,2 km/h (4 Bft) W-SW 251 0 min 0,000 mm 0 W/m 14,3 C 15,9 C 49,9 km/h (6 Bft) 100 %
06.07.2014 22:50 19,8 C 19,8 C 20,7 C 73 % 1010,6 hPa 0,0 l/m 25,7 km/h (4 Bft) W-NW 292 0 min 0,000 mm 0 W/m 14,8 C 15,0 C 45,1 km/h (6 Bft) 97 %
06.07.2014 23:00 18,6 C 18,6 C 19,7 C 80 % 1010,6 hPa 0,2 l/m 22,5 km/h (4 Bft) W-NW 292 0 min 0,127 mm 0 W/m 15,1 C 13,9 C 43,5 km/h (6 Bft) 98 %
06.07.2014 23:10 18,0 C 17,9 C 18,6 C 83 % 1011,1 hPa 0,0 l/m 11,3 km/h (2 Bft) W-NW 292 0 min 0,000 mm 0 W/m 15,1 C 16,0 C 30,6 km/h (5 Bft) 97 %
06.07.2014 23:20 17,7 C 17,7 C 17,9 C 84 % 1011,8 hPa 0,0 l/m 9,7 km/h (2 Bft) W 270 0 min 0,000 mm 0 W/m 15,0 C 16,2 C 25,7 km/h (4 Bft) 98 %
06.07.2014 23:30 17,4 C 17,4 C 17,7 C 84 % 1012,0 hPa 0,6 l/m 4,8 km/h (1 Bft) W 270 0 min 0,000 mm 0 W/m 14,7 C 17,4 C 17,7 km/h (3 Bft) 98 %
06.07.2014 23:40 17,3 C 17,3 C 17,4 C 85 % 1012,1 hPa 0,2 l/m 4,8 km/h (1 Bft) S-SW 202 0 min 0,000 mm 0 W/m 14,8 C 17,3 C 17,7 km/h (3 Bft) 97 %
06.07.2014 23:50 16,9 C 16,9 C 17,3 C 86 % 1012,8 hPa 0,6 l/m 9,7 km/h (2 Bft) S-SO 157 0 min 0,000 mm 0 W/m 14,5 C 15,3 C 22,5 km/h (4 Bft) 98 %
_ Min-Zeit 06:20 06:20 06:30 14:50 20:20 - 00:10 - - - - - 06:20 23:00 03:50 15:00
Minimum _ 14,4 C 14,4 C 14,4 C 45 % 1006,0 hPa - 0,0 km/h (0 Bft) - - - - - 12,3 C 13,9 C 0,0 km/h (0 Bft) 97 %
_ Max-Zeit 15:00 15:00 15:00 06:10 23:50 23:30 22:10 - - 08:20 14:00 14:40 16:30 15:00 22:10 00:50
Maximum _ 29,6 C 29,3 C 29,6 C 87 % 1012,8 hPa 0,6 l/m 29,3 km/h
W-SW (5 Bft)
- - 10 min 0,533 mm 990 W/m 18,5 C 29,5 C 59,5 km/h
W-NW (7 Bft)
100 %
Durchschnitt _ 22,8 C 22,6 C 22,9 C 66 % 1009,7 hPa #1,6 l/m 3,6 km/h (1 Bft) SO - #11:00 h #4,216 mm 368 W/m 15,6 C 22,5 C 11,1 km/h (2 Bft) 99 %
PRIVATE WETTERSTATION BILLIGHEIM-ALLFELD - www.neckar-odenwald-wetter.de - Holger Sonntag